{"data":{"norad_id":62730,"epoch":"2026-09-22T22:00:28.902816Z","epoch_age_seconds":110733,"freshness":"FRESH","line1":"1 62730U 25013B   26265.91700119  .00001953  00000+0  11792-3 0  9998","line2":"2 62730  97.6645  75.5012 0014077  39.6235 320.6021 15.11845504 92092","mean_motion":15.11845504,"eccentricity":0.0014077,"inclination_deg":97.6645,"raan_deg":75.5012,"arg_perigee_deg":39.6235,"mean_anomaly_deg":320.6021,"bstar":0.00011792,"rev_number":9209,"period_min":95.247827651045,"perigee_km":520.84659827352,"apogee_km":540.29737755809,"semimajor_km":6908.7089879158,"source":"CELESTRAK","updated_at":"2026-09-23T09:00:21.591705Z"}}